Location: Castle
(40.7167°S, 175.9500°E)
Time: 18:44:38
(UTC+00:00)

USA 215 - Pass Details

Date: 04 August 2024
Orbit: 1099 x 1108 km, 123.0° (Epoch: 16 September)

Event Time Altitude Azimuth Distance (km) Brightness Sun altitude
Rises 17:11:51 0° 136° (SE) 3,953 6.8 -24.2°
Reaches altitude 10° 17:14:26 10° 140° (SE) 2,991 6.0 -23.7°
Maximum altitude 17:20:44 49° 212° (SSW) 1,402 3.5 -22.5°
Enters shadow 17:22:37 39° 255° (WSW) 1,608 3.6 -22.1°
